(83) Beatrix
ephemeris date magn radius delta ra dec elong phase
Today1 Jul 202512.52.465 AU1.581 AU21h24m-23°21'142.2°14.6°
Opposition1 Aug 202511.92.492 AU1.484 AU20h59m-25°38'171.8°3.3°
(83) Beatrix - 2025-07-01
astro.vanbuitenen.nl


 
-1 year
-1 month
-1 day
Now
+1 day
+1 month
+1 year

The interactive orbit chart above shows the body's path through the solar system and its position at the given date. Green and blue lines are shown perpendicular to the ecliptic plane: Green if the path is above the ecliptic plane, blue if it is below. (Left-click and drag to rotate the view; Right-click and drag to move the view; Use scroll wheel to zoom in our out.)

The orbital elements of Beatrix are:

            e (Eccentricity)                : 0.0829196
            a (Semimajor axis)              : 2.4319495
            i (Inclination)                 : 4.96650
            Ω (Longitude of ascending node) : 27.66389
            ω (Argument of perihelion)      : 169.95660
            M (Mean anomaly)                : 79.92064
            Epoch                           : 2025 May 05

            L (Longitude of perihelion)     : 17.65743
            B (Latitude of perihelion)      : 0.86508
            P (Orbital period in years)     : 3.79            
        

The light curve chart below shows the estimated development of the minor planet's magnitude.


The all-sky chart below shows the path of the minor planet over the same period as the light curve. The current position is marked yellow.





The following chart shows the path of the minor planet in the next few days. The field of view is optimized for (~10x50) binoculars and finderscopes. A more printer-friendly version of the same chart can be found below.




Ephemerides:
Date       Time       RA (2000)    DEC (2000)    delta   radius  elong  phase   PA    magn
2025-07-01 00:00 UT   21 24 33.3   -23 21 31     1.581    2.465  142.2   14.6   262   12.5 
2025-07-01 01:00 UT   21 24 32.2   -23 21 41     1.581    2.465  142.3   14.6   262   12.5 
2025-07-02 00:00 UT   21 24 06.2   -23 25 37     1.575    2.466  143.3   14.3   262   12.5 
2025-07-03 00:00 UT   21 23 37.4   -23 29 46     1.569    2.467  144.3   13.9   263   12.5 
2025-07-04 00:00 UT   21 23 06.8   -23 34 00     1.563    2.468  145.4   13.5   263   12.5 
2025-07-05 00:00 UT   21 22 34.5   -23 38 18     1.557    2.469  146.4   13.2   264   12.4 
2025-07-06 00:00 UT   21 22 00.6   -23 42 39     1.551    2.469  147.5   12.8   265   12.4 
2025-07-07 00:00 UT   21 21 25.0   -23 47 04     1.545    2.470  148.5   12.4   265   12.4 
2025-07-08 00:00 UT   21 20 47.7   -23 51 31     1.540    2.471  149.6   12.0   266   12.4 
2025-07-09 00:00 UT   21 20 08.9   -23 56 01     1.535    2.472  150.7   11.6   267   12.3 
2025-07-10 00:00 UT   21 19 28.5   -24 00 32     1.530    2.473  151.7   11.2   267   12.3 
2025-07-11 00:00 UT   21 18 46.5   -24 05 06     1.526    2.474  152.8   10.8   268   12.3 
2025-07-12 00:00 UT   21 18 03.1   -24 09 41     1.521    2.475  153.9   10.4   269   12.3 
2025-07-13 00:00 UT   21 17 18.2   -24 14 17     1.517    2.476  155.0   10.0   270   12.3 
2025-07-14 00:00 UT   21 16 31.9   -24 18 54     1.513    2.476  156.0    9.6   271   12.2 
2025-07-15 00:00 UT   21 15 44.2   -24 23 31     1.509    2.477  157.1    9.2   272   12.2 
2025-07-16 00:00 UT   21 14 55.1   -24 28 08     1.506    2.478  158.2    8.8   273   12.2 
2025-07-17 00:00 UT   21 14 04.8   -24 32 44     1.502    2.479  159.2    8.4   275   12.2 
2025-07-18 00:00 UT   21 13 13.2   -24 37 20     1.499    2.480  160.3    7.9   276   12.2 
2025-07-19 00:00 UT   21 12 20.5   -24 41 54     1.497    2.481  161.3    7.5   278   12.1 
2025-07-20 00:00 UT   21 11 26.6   -24 46 27     1.494    2.482  162.4    7.1   280   12.1 
2025-07-21 00:00 UT   21 10 31.7   -24 50 57     1.492    2.483  163.4    6.7   282   12.1 
2025-07-22 00:00 UT   21 09 35.7   -24 55 25     1.490    2.483  164.4    6.3   284   12.1 
2025-07-23 00:00 UT   21 08 38.8   -24 59 50     1.488    2.484  165.4    5.9   286   12.0 
2025-07-24 00:00 UT   21 07 41.1   -25 04 12     1.486    2.485  166.4    5.5   289   12.0 
2025-07-25 00:00 UT   21 06 42.5   -25 08 30     1.485    2.486  167.3    5.2   293   12.0 
2025-07-26 00:00 UT   21 05 43.3   -25 12 44     1.484    2.487  168.2    4.8   297   12.0 
2025-07-27 00:00 UT   21 04 43.4   -25 16 52     1.483    2.488  169.0    4.5   301   12.0 
2025-07-28 00:00 UT   21 03 42.9   -25 20 56     1.483    2.489  169.8    4.2   306   12.0 
2025-07-29 00:00 UT   21 02 42.0   -25 24 55     1.483    2.489  170.4    3.9   312   11.9 
2025-07-30 00:00 UT   21 01 40.6   -25 28 48     1.483    2.490  171.0    3.7   319   11.9 
2025-07-31 00:00 UT   21 00 38.9   -25 32 35     1.483    2.491  171.4    3.5   326   11.9 


    Terminology:
            
    delta:  distance between minor planet and earth in AU
    radius: distance between minor planet and sun in AU
    magn:   magnitude (brightness) estimate    
    ra:     right ascension in hours (24h = 360deg)
    dec:    declination in degrees
    elong:  elongation in degrees (angle sun-earth-minor planet)    
    phase:  phase angle in degrees (angle sun-minor planet-earth)        
    AU:     Astronomical Unit (mean distance between earth and sun: 149597870.7 km
    

Orbital elements provided by the MPC (Minor Planet Center).
Calculations by a modified version of AAPlus, a C# implementation of the AA+ project by PJ Naughter from the algorithms presented in the book "Astronomical Algorithms" by Jean Meeus.
NGC2000 dso catalog and star labels from VizieR as provided by the Strasbourg astronomical Data Center.
Tycho2 catalog from the ESO archive.